[Iaude] MPEC A138: 2024 AM3 [a=1.98,e=0.52,i=5.7,H=26.6]

mpec at marsden.cfa.harvard.edu mpec at marsden.cfa.harvard.edu
Thu Jan 11 20:24:48 EST 2024


M.P.E.C. 2024-A138                             Issued 2024 January 12, 01:22 UT

     The Minor Planet Electronic Circulars contain information on unusual
         minor planets, routine data on comets and natural satellites,
         and occasional editorial announcements.  They are published
    on behalf of Division F of the International Astronomical Union by the
          Minor Planet Center, Smithsonian Astrophysical Observatory,
                          Cambridge, MA 02138, U.S.A.
			  
             Prepared using the Tamkin Foundation Computer Network

                              MPC at CFA.HARVARD.EDU
            URL https://www.minorplanetcenter.net/    ISSN 1523-6714

                                    2024 AM3                                    


Observations:
     K24A03M*1C2024 01 11.30111808 02 42.673+12 08 15.58         20.50GVEA138G96
     K24A03M 1C2024 01 11.30628108 02 44.344+12 07 40.30         20.50GVEA138G96
     K24A03M 1C2024 01 11.31142908 02 45.974+12 07 05.20         20.90GVEA138G96
     K24A03M 1C2024 01 11.31658808 02 47.648+12 06 30.02         20.46GVEA138G96
     K24A03M KC2024 01 11.35045008 02 58.513+12 02 39.41         20.53GVEA138V06
     K24A03M KC2024 01 11.35174208 02 58.934+12 02 30.62         20.30GVEA138V06
     K24A03M KC2024 01 11.35303408 02 59.320+12 02 21.70         20.73GVEA138V06
     K24A03M KC2024 01 11.35432508 02 59.744+12 02 13.24         20.52GVEA138V06
     K24A03M KC2024 01 11.39704708 03 13.424+11 57 22.57         20.61GVEA138V06
     K24A03M KC2024 01 11.39833908 03 13.813+11 57 13.43         20.34GVEA138V06
     K24A03M KC2024 01 11.39963208 03 14.206+11 57 04.21         20.55GVEA138V06
     K24A03M KC2024 01 11.94248508 06 34.92 +10 59 09.3          21.0 GVEA138L01
     K24A03M KC2024 01 11.95089108 06 37.31 +10 58 20.4          20.6 GVEA138L01
     K24A03M KC2024 01 11.95299608 06 37.92 +10 58 07.4          20.8 GVEA138L01
     K24A03M KC2024 01 11.95509808 06 38.47 +10 57 55.2          20.8 GVEA138L01
     K24A03M IC2024 01 11.95699008 06 39.02 +10 57 43.8          20.2 GVEA138L01

Observer details:
G96 Mt. Lemmon Survey.  Observer J. K. Hogan.  Measurers T. Beuden, V. F.
    Carvajal, D. Fay, J. B. Fazekas, D. C. Fuls, A. R. Gibbs, A. D. Grauer, H.
    Groeller, J. K. Hogan, R. A. Kowalski, S. M. Larson, G. J. Leonard, D.
    Rankin, R. L. Seaman, F. C. Shelly, K. W. Wierzchos.  1.5-m reflector +
    10K CCD.
L01 Visnjan Observatory, Tican.  Observers K. Korlevic, L. Poropat.  Measurer
    K. Korlevic.  1.0-m f/2.9 reflector + CCD.
V06 Catalina Sky Survey-Kuiper.  Observer K. W. Wierzchos.  Measurers T.
    Beuden, V. F. Carvajal, D. Fay, J. B. Fazekas, D. C. Fuls, A. R. Gibbs, A.
    D. Grauer, H. Groeller, J. K. Hogan, R. A. Kowalski, S. M. Larson, G. J.
    Leonard, D. Rankin, R. L. Seaman, F. C. Shelly, K. W. Wierzchos.  1.55-m
    reflector + 1K CCD.

Orbital elements:
2024 AM3                                                 Earth MOID = 0.0131 AU
Epoch 2023 Sept. 13.0 TT = JDT 2460200.5                Veres                   
M 328.89631              (2000.0)            P               Q                  
n   0.35475864     Peri.  143.01851     +0.34012481     -0.93560104             
a   1.9762751      Node   286.92475     +0.83736779     +0.34714847             
e   0.5220931      Incl.    5.68014     +0.42793726     +0.06433228             
P   2.78           H   26.60          G   0.15           U   9                  
Residuals in seconds of arc
240111 G96  0.2+  0.0     240111 V06  0.2-  0.0     240111 L01  0.1+  0.4+
240111 G96  0.2+  0.0     240111 V06  0.0   0.3+    240111 L01  0.3+  0.1-
240111 G96  0.3-  0.0     240111 V06  0.6+  0.3+    240111 L01  0.4-  0.2+
240111 G96  0.2-  0.0     240111 V06  0.2+  0.0     240111 L01  0.3-  0.0
240111 V06  0.1+  0.1+    240111 V06  0.1-  0.5-
240111 V06  0.2+  0.1+    240111 L01  0.3+  0.5-

Ephemeris:
2024 AM3                 a,e,i = 1.98, 0.52, 6                   q = 0.9445
Date    TT    R. A. (2000) Decl.     Delta      r    Elong.  Phase     V
2023 12 13    21 16 35.7 +10 42 27   0.1183  0.9455    67.4   106.0    25.8
...
2023 12 28    22 12 33.6 +25 15 51   0.03969 0.9729    73.5   104.2    23.4
...
2024 01 05    05 46 52.3 +40 47 30   0.02002 1.0017   156.3    23.3    19.2
...
2024 01 11    08 00 38.2 +12 45 04   0.04626 1.0287   167.7    11.8    20.7
2024 01 12    08 06 51.3 +10 55 10   0.05155 1.0336   166.1    13.3    21.0
2024 01 13    08 11 49.4 +09 26 04   0.05694 1.0386   164.9    14.3    21.3
...
2024 01 19    08 28 12.6 +04 29 27   0.09077 1.0708   162.6    16.0    22.4
...
2024 01 27    08 36 31.9 +02 13 30   0.1391  1.1186   163.5    14.5    23.4
...
2024 02 11    08 42 59.2 +01 46 43   0.2418  1.2191   162.0    14.5    24.8

M. P. C. Staff               (C) Copyright 2024 MPC           M.P.E.C. 2024-A138





More information about the Iaude mailing list